Weather History for EGGD - August, 2012

Change the Weather History Date:

Saturday, August 18, 2012

  Actual Average Record
Temperature  
Mean Temperature 66 °F -  
Max Temperature 71 °F 63 °F - ()
Min Temperature 62 °F 51 °F - ()
Cooling Degree Days 2    
Growing Degree Days 16 (Base 50)    
Moisture  
Dew Point 61 °F    
Average Humidity 84    
Maximum Humidity 100    
Minimum Humidity 60    
Precipitation  
Precipitation 0.00 in - - ()
Sea Level Pressure  
Sea Level Pressure 29.95 in    
Wind  
Wind Speed 7 mph ()    
Max Wind Speed 12 mph    
Max Gust Speed -    
Visibility 6.1 miles    
Events      
T = Trace of Precipitation, MM = Missing Value Source: Averaged Metar Reports

Daily Weather History Graph

Daily Weather History Graph

Search for Another Location

Airport or City:

Trip Planner

Search our weather history database for the weather conditions in past years. The results will help you decide how hot, cold, wet, or windy it might be!

Date:

Astronomy

Aug. 18, 2012 Rise Set
Actual Time 6:01 AM BST 8:26 PM BST
Civil Twilight 5:25 AM BST 9:02 PM BST
Nautical Twilight 4:38 AM BST 9:49 PM BST
Astronomical Twilight 3:43 AM BST 10:43 PM BST
Moon 7:07 AM BST (8/18) 8:16 PM BST (8/18)
Length of Visible Light 15h 37m
Length of Day
14h 24m
New Moon, 1% of the Moon is Illuminated
Aug 18
New Moon
Aug 24
First Quarter
Aug 31
Full
Sep 8
Last Quarter
Sep 16
New

Hourly Weather History & Observations

Time (BST) Temp. Dew Point Humidity Pressure Visibility Wind Dir Wind Speed Gust Speed Precip Events Conditions
12:20 AM 66.2 °F 53.6 °F 64% 29.89 in - South 5.8 mph - N/A   Clear
12:50 AM 66.2 °F 53.6 °F 64% 29.89 in - South 5.8 mph - N/A   Clear
1:20 AM 66.2 °F 51.8 °F 60% 29.86 in - South 6.9 mph - N/A   Clear
1:50 AM 66.2 °F 51.8 °F 60% 29.86 in - South 5.8 mph - N/A   Clear
2:20 AM 66.2 °F 55.4 °F 68% 29.86 in - South 5.8 mph - N/A   Clear
2:50 AM 64.4 °F 55.4 °F 73% 29.86 in - SSW 4.6 mph - N/A   Clear
3:20 AM 64.4 °F 55.4 °F 73% 29.86 in - South 8.1 mph - N/A   Clear
3:50 AM 66.2 °F 57.2 °F 73% 29.86 in - South 8.1 mph - N/A   Clear
4:20 AM 64.4 °F 59.0 °F 83% 29.89 in - SSW 10.4 mph - N/A   Clear
4:50 AM 64.4 °F 59.0 °F 83% 29.86 in - South 9.2 mph - N/A   Clear
5:20 AM 64.4 °F 59.0 °F 83% 29.86 in 6.2 mi South 10.4 mph - N/A   Partly Cloudy
5:50 AM 64.4 °F 60.8 °F 88% 29.86 in 6.2 mi South 11.5 mph - N/A   Partly Cloudy
6:20 AM 64.4 °F 60.8 °F 88% 29.89 in 6.2 mi South 9.2 mph - N/A   Scattered Clouds
6:50 AM 62.6 °F 60.8 °F 94% 29.89 in 6.2 mi South 10.4 mph - N/A   Scattered Clouds
7:20 AM 62.6 °F 62.6 °F 100% 29.89 in 5.6 mi South 8.1 mph - N/A   Mostly Cloudy
7:50 AM 62.6 °F 62.6 °F 100% 29.89 in 5.0 mi SSW 6.9 mph - N/A   Mostly Cloudy
8:20 AM 64.4 °F 62.6 °F 94% 29.89 in 6.2 mi South 9.2 mph - N/A   Mostly Cloudy
8:50 AM 64.4 °F 62.6 °F 94% 29.92 in 6.2 mi SSW 8.1 mph - N/A   Mostly Cloudy
9:20 AM 64.4 °F 62.6 °F 94% 29.92 in 6.2 mi SSW 10.4 mph - N/A   Mostly Cloudy
9:50 AM 64.4 °F 62.6 °F 94% 29.92 in 6.2 mi South 6.9 mph - N/A   Mostly Cloudy
10:20 AM 66.2 °F 62.6 °F 88% 29.95 in 6.2 mi South 6.9 mph - N/A   Mostly Cloudy
10:50 AM 66.2 °F 64.4 °F 94% 29.95 in 6.2 mi South 8.1 mph - N/A   Mostly Cloudy
11:20 AM 68.0 °F 64.4 °F 88% 29.95 in 6.2 mi South 8.1 mph - N/A   Mostly Cloudy
11:50 AM 68.0 °F 64.4 °F 88% 29.95 in 6.2 mi South 9.2 mph - N/A   Mostly Cloudy
12:20 PM 68.0 °F 64.4 °F 88% 29.95 in 6.2 mi South 5.8 mph - N/A   Mostly Cloudy
12:50 PM 69.8 °F 66.2 °F 88% 29.98 in 6.2 mi SSW 8.1 mph - N/A   Mostly Cloudy
1:20 PM 71.6 °F 66.2 °F 83% 29.98 in 6.2 mi SSW 8.1 mph - N/A   Mostly Cloudy
1:50 PM 71.6 °F 64.4 °F 78% 29.95 in 6.2 mi South 6.9 mph - N/A   Scattered Clouds
2:20 PM 69.8 °F 64.4 °F 83% 29.98 in 6.2 mi West 9.2 mph - N/A   Mostly Cloudy
2:50 PM 68.0 °F 64.4 °F 88% 29.98 in 6.2 mi West 10.4 mph - N/A   Mostly Cloudy
3:20 PM 69.8 °F 64.4 °F 83% 29.98 in 6.2 mi WNW 9.2 mph - N/A   Scattered Clouds
3:50 PM 69.8 °F 64.4 °F 83% 29.98 in 6.2 mi WNW 10.4 mph - N/A   Partly Cloudy
4:20 PM 71.6 °F 64.4 °F 78% 29.98 in 6.2 mi WNW 5.8 mph - N/A   Partly Cloudy
4:50 PM 71.6 °F 64.4 °F 78% 30.01 in 6.2 mi WNW 8.1 mph - N/A   Partly Cloudy
5:20 PM 69.8 °F 64.4 °F 83% 30.01 in 6.2 mi NW 8.1 mph - N/A   Partly Cloudy
5:50 PM 69.8 °F 62.6 °F 78% 30.01 in 6.2 mi WNW 6.9 mph - N/A   Partly Cloudy
6:20 PM 69.8 °F 64.4 °F 83% 30.01 in 6.2 mi West 6.9 mph - N/A   Partly Cloudy
6:50 PM 69.8 °F 64.4 °F 83% 30.01 in - West 5.8 mph - N/A   Clear
7:20 PM 68.0 °F 62.6 °F 83% 30.01 in 6.2 mi West 5.8 mph - N/A   Partly Cloudy
7:50 PM 66.2 °F 62.6 °F 88% 30.01 in 6.2 mi Variable 2.3 mph - N/A   Partly Cloudy
8:20 PM 66.2 °F 62.6 °F 88% 30.01 in 6.2 mi NNW 2.3 mph - N/A   Scattered Clouds
8:50 PM 66.2 °F 60.8 °F 83% 30.01 in 6.2 mi Calm Calm - N/A   Scattered Clouds
9:20 PM 64.4 °F 62.6 °F 94% 30.04 in 6.2 mi SSW 3.5 mph - N/A   Scattered Clouds
9:50 PM 64.4 °F 60.8 °F 88% 30.04 in 6.2 mi SW 4.6 mph - N/A   Scattered Clouds
10:20 PM 62.6 °F 60.8 °F 94% 30.04 in 6.2 mi SSW 5.8 mph - N/A   Scattered Clouds
10:50 PM 62.6 °F 60.8 °F 94% 30.04 in 5.6 mi WSW 5.8 mph - N/A   Scattered Clouds
11:20 PM 62.6 °F 60.8 °F 94% 30.04 in 5.6 mi WSW 4.6 mph - N/A   Partly Cloudy
11:50 PM 62.6 °F 60.8 °F 94% 30.04 in 5.6 mi SW 5.8 mph - N/A   Scattered Clouds